FW7043 Weather Reports


time (UTC)temp
C
wind
direction
speed
KPH
gust
KPH
rain 1hr
cm
rain 24hr
cm
rain mn
cm
humidity
%
barometer
mb
20260505184201 27 199 3.2 3.2 0.00 0.00 0.00 41 1017.2
20260505183657 27 237 6.4 9.7 0.00 0.00 0.00 40 1017.2
20260505183155 27 168 8.0 9.7 0.00 0.00 0.00 41 1017.0
20260505182650 27 252 11.3 14.5 0.00 0.00 0.00 41 1017.2
20260505182148 27 244 6.4 9.7 0.00 0.00 0.00 41 1017.3
20260505181644 26 254 8.0 11.3 0.00 0.00 0.00 41 1017.4
20260505181142 27 229 8.0 12.9 0.00 0.00 0.00 38 1017.3
20260505180638 26 209 6.4 9.7 0.00 0.00 0.00 39 1017.4
20260505180136 27 236 3.2 3.2 0.00 0.00 0.00 42 1017.5
20260505175631 26 271 8.0 9.7 0.00 0.00 0.00 43 1017.5
20260505175128 26 217 6.4 9.7 0.00 0.00 0.00 44 1017.4
20260505174624 26 212 6.4 9.7 0.00 0.00 0.00 42 1017.3
20260505174120 26 208 3.2 4.8 0.00 0.00 0.00 44 1017.5
20260505173617 26 205 6.4 11.3 0.00 0.00 0.00 42 1017.6
20260505173115 26 216 4.8 9.7 0.00 0.00 0.00 44 1017.8
20260505172612 26 203 1.6 1.6 0.00 0.00 0.00 44 1017.6
20260505172109 26 222 6.4 11.3 0.00 0.00 0.00 45 1017.7
20260505171609 26 274 3.2 3.2 0.00 0.00 0.00 44 1017.9
20260505171106 26 172 6.4 11.3 0.00 0.00 0.00 45 1018.0
20260505170603 26 253 6.4 9.7 0.00 0.00 0.00 46 1017.8
20260505170059 26 280 6.4 9.7 0.00 0.00 0.00 45 1018.1
20260505165554 26 241 6.4 8.0 0.00 0.00 0.00 47 1018.0
20260505165050 25 237 6.4 9.7 0.00 0.00 0.00 48 1018.2
20260505164546 25 233 4.8 4.8 0.00 0.00 0.00 48 1018.1
20260505164038 25 182 12.9 16.1 0.00 0.00 0.00 47 1018.2
20260505163537 25 195 4.8 8.0 0.00 0.00 0.00 48 1018.2
20260505163033 25 171 9.7 12.9 0.00 0.00 0.00 46 1018.0
20260505162526 25 169 6.4 8.0 0.00 0.00 0.00 48 1018.2
20260505162023 25 283 4.8 8.0 0.00 0.00 0.00 46 1018.2
20260505161520 25 272 6.4 9.7 0.00 0.00 0.00 48 1018.2
20260505161017 25 190 4.8 8.0 0.00 0.00 0.00 50 1018.2
20260505160515 25 233 4.8 9.7 0.00 0.00 0.00 50 1018.4
20260505152951 23 214 8.0 9.7 0.00 0.00 0.00 53 1018.3
20260505152449 23 241 4.8 4.8 0.00 0.00 0.00 54 1018.5
20260505151943 23 281 4.8 4.8 0.00 0.00 0.00 55 1018.3
20260505151439 23 241 9.7 12.9 0.00 0.00 0.00 54 1018.2
20260505150937 23 221 3.2 8.0 0.00 0.00 0.00 55 1018.6
20260505150434 22 232 8.0 11.3 0.00 0.00 0.00 56 1018.3
20260505140404 21 266 4.8 4.8 0.00 0.00 0.00 61 1018.7
20260505124817 19 257 9.7 12.9 0.00 0.00 0.00 65 1018.8
20260505124314 19 226 3.2 3.2 0.00 0.00 0.00 66 1018.9
20260505123810 18 230 8.0 9.7 0.00 0.00 0.00 65 1018.6
20260505123307 18 204 4.8 8.0 0.00 0.00 0.00 67 1018.9
20260505122803 18 243 4.8 4.8 0.00 0.00 0.00 67 1018.6
20260505122301 18 228 4.8 4.8 0.00 0.00 0.00 68 1018.6
20260505121757 18 242 6.4 8.0 0.00 0.00 0.00 69 1018.7
20260505121254 17 249 1.6 3.2 0.00 0.00 0.00 70 1018.5
20260505120750 17 266 1.6 3.2 0.00 0.00 0.00 72 1018.6
20260505120246 17 196 3.2 4.8 0.00 0.00 0.00 73 1018.7
20260505115745 16 213 1.6 3.2 0.00 0.00 0.00 75 1018.5
20260505115243 16 196 3.2 3.2 0.00 0.00 0.00 75 1018.5
20260505114740 16 183 4.8 4.8 0.00 0.00 0.00 76 1018.7
20260505114236 16 242 0.0 1.6 0.00 0.00 0.00 77 1018.4
20260505113733 15 246 3.2 3.2 0.00 0.00 0.00 78 1018.5
20260505113229 15 268 3.2 4.8 0.00 0.00 0.00 79 1018.6
20260505112725 15 255 0.0 1.6 0.00 0.00 0.00 80 1018.6
20260505112223 15 300 4.8 4.8 0.00 0.00 0.00 80 1018.5
20260505111723 15 172 6.4 8.0 0.00 0.00 0.00 80 1018.5
20260505111219 15 260 1.6 1.6 0.00 0.00 0.00 81 1018.2
20260505110715 15 204 0.0 1.6 0.00 0.00 0.00 81 1018.5
20260505110213 15 207 4.8 8.0 0.00 0.00 0.00 81 1018.4
20260505102148 14 213 4.8 8.0 0.00 0.00 0.00 80 1018.0
20260505101647 14 260 3.2 4.8 0.00 0.00 0.00 80 1017.7
20260505101143 14 262 4.8 4.8 0.00 0.00 0.00 80 1017.8
20260505100639 14 274 4.8 4.8 0.00 0.00 0.00 80 1017.7
20260505100136 15 256 3.2 3.2 0.00 0.00 0.00 79 1017.6
20260505095632 15 306 4.8 8.0 0.00 0.00 0.00 79 1017.6
20260505095129 15 231 1.6 1.6 0.00 0.00 0.00 79 1017.8
20260505094626 15 238 3.2 3.2 0.00 0.00 0.00 79 1017.5
20260505094122 15 274 1.6 1.6 0.00 0.00 0.00 78 1017.3
20260505093618 15 260 1.6 3.2 0.00 0.00 0.00 78 1017.4
20260505093115 15 257 0.0 1.6 0.00 0.00 0.00 77 1017.3
20260505092613 15 283 1.6 3.2 0.00 0.00 0.00 77 1017.6
20260505092112 15 233 4.8 4.8 0.00 0.00 0.00 77 1017.1
20260505091608 15 216 1.6 3.2 0.00 0.00 0.00 76 1017.1
20260505091106 15 229 4.8 8.0 0.00 0.00 0.00 76 1017.0
20260505090604 15 226 1.6 3.2 0.00 0.00 0.00 76 1017.1
20260505085559 15 273 1.6 3.2 0.00 0.00 0.00 75 1017.1
20260505085057 15 268 3.2 3.2 0.00 0.00 0.00 75 1017.3
20260505084555 15 204 4.8 4.8 0.00 0.00 0.00 75 1017.2
20260505084052 15 259 0.0 0.0 0.00 0.00 0.00 75 1017.3
20260505083549 16 213 4.8 8.0 0.00 0.00 0.00 74 1017.3
20260505083046 16 292 3.2 3.2 0.00 0.00 0.00 74 1017.2
20260505082542 16 244 3.2 3.2 0.00 0.00 0.00 74 1017.1
20260505082039 16 220 4.8 4.8 0.00 0.00 0.00 73 1017.0
20260505081535 16 247 3.2 3.2 0.00 0.00 0.00 73 1017.2
20260505081032 16 250 4.8 4.8 0.00 0.00 0.00 73 1017.1
20260505080528 16 279 1.6 3.2 0.00 0.00 0.00 73 1017.1
20260505080026 16 257 1.6 3.2 0.00 0.00 0.00 73 1017.2
20260505075521 16 206 0.0 1.6 0.00 0.00 0.00 72 1016.9
20260505075018 16 201 6.4 9.7 0.00 0.00 0.00 72 1016.9
20260505074515 16 241 1.6 3.2 0.00 0.00 0.00 72 1017.0
20260505074013 16 242 3.2 3.2 0.00 0.00 0.00 72 1017.1
20260505073510 16 240 3.2 3.2 0.00 0.00 0.00 71 1016.9
20260505073008 16 200 1.6 1.6 0.00 0.00 0.00 71 1017.0
20260505072504 16 272 1.6 3.2 0.00 0.00 0.00 71 1016.8
20260505071959 16 251 4.8 4.8 0.00 0.00 0.00 70 1016.8
20260505071455 16 266 4.8 4.8 0.00 0.00 0.00 70 1016.7
20260505070954 16 225 6.4 9.7 0.00 0.00 0.00 70 1016.8
20260505070450 16 258 1.6 3.2 0.00 0.00 0.00 69 1016.7
20260505065946 16 239 4.8 8.0 0.00 0.00 0.00 69 1016.5
20260505065443 17 246 8.0 9.7 0.00 0.00 0.00 69 1016.7
20260505064939 17 254 3.2 3.2 0.00 0.00 0.00 68 1016.9
20260505064436 17 247 1.6 1.6 0.00 0.00 0.00 68 1016.7
20260505063935 17 194 4.8 4.8 0.00 0.00 0.00 68 1016.7
20260505063431 17 259 3.2 4.8 0.00 0.00 0.00 68 1016.8
20260505062927 17 254 6.4 8.0 0.00 0.00 0.00 67 1016.7
20260505062425 17 253 3.2 4.8 0.00 0.00 0.00 67 1016.8
20260505061921 17 228 4.8 4.8 0.00 0.00 0.00 66 1016.8
20260505061420 17 213 4.8 8.0 0.00 0.00 0.00 67 1016.8
20260505060917 17 259 3.2 3.2 0.00 0.00 0.00 66 1016.8
20260505060414 17 229 4.8 8.0 0.00 0.00 0.00 66 1016.9
20260505055910 17 199 0.0 1.6 0.00 0.00 0.00 66 1016.8
20260505055406 17 212 1.6 3.2 0.00 0.00 0.00 66 1016.9
20260505054903 17 201 8.0 11.3 0.00 0.00 0.00 66 1017.1
20260505054400 17 204 4.8 9.7 0.00 0.00 0.00 66 1017.3
20260505053858 17 223 3.2 3.2 0.00 0.00 0.00 66 1017.0
20260505053355 17 209 3.2 4.8 0.00 0.00 0.00 66 1017.0
20260505052852 17 269 4.8 4.8 0.00 0.00 0.00 65 1016.9
20260505052349 17 219 3.2 4.8 0.00 0.00 0.00 65 1017.2
20260505051846 17 254 11.3 14.5 0.00 0.00 0.00 65 1017.3
20260505051343 18 209 4.8 4.8 0.00 0.00 0.00 65 1017.3
20260505050841 18 152 6.4 9.7 0.00 0.00 0.00 65 1016.9
20260505050340 18 273 4.8 9.7 0.00 0.00 0.00 65 1017.2
20260505041307 18 207 1.6 4.8 0.00 0.00 0.00 65 1017.0
20260505040804 18 186 4.8 4.8 0.00 0.00 0.00 65 1017.1
20260505040301 18 292 3.2 3.2 0.00 0.00 0.00 65 1017.0
20260505035758 18 202 6.4 8.0 0.00 0.00 0.00 65 1016.7
20260505035253 18 236 8.0 11.3 0.00 0.00 0.00 65 1016.9
20260505034751 18 270 6.4 9.7 0.00 0.00 0.00 64 1017.0
20260505034248 18 266 6.4 9.7 0.00 0.00 0.00 64 1016.9
20260505033744 18 254 6.4 8.0 0.00 0.00 0.00 65 1016.8
20260505033242 18 114 3.2 4.8 0.00 0.00 0.00 65 1016.8
20260505032740 18 238 4.8 4.8 0.00 0.00 0.00 64 1017.0
20260505032235 18 208 4.8 9.7 0.00 0.00 0.00 65 1016.9
20260505031733 18 254 3.2 4.8 0.00 0.00 0.00 65 1016.9
20260505031229 18 163 6.4 8.0 0.00 0.00 0.00 65 1016.8
20260505030726 18 266 4.8 8.0 0.00 0.00 0.00 65 1016.8
20260505030222 18 265 8.0 9.7 0.00 0.00 0.00 65 1016.9
20260505025718 18 239 4.8 4.8 0.00 0.00 0.00 65 1016.9
20260505025217 18 251 8.0 12.9 0.00 0.00 0.00 65 1017.0
20260505024714 18 235 6.4 8.0 0.00 0.00 0.00 65 1016.8
20260505024211 18 237 3.2 4.8 0.00 0.00 0.00 65 1016.7
20260505023709 18 218 6.4 8.0 0.00 0.00 0.00 66 1016.9
20260505023206 18 207 8.0 9.7 0.00 0.00 0.00 66 1016.6
20260505022703 18 265 8.0 11.3 0.00 0.00 0.00 66 1016.7
20260505022200 18 235 4.8 8.0 0.00 0.00 0.00 66 1016.5
20260505021657 19 239 3.2 3.2 0.00 0.00 0.00 66 1016.9
20260505021154 19 210 6.4 8.0 0.00 0.00 0.00 66 1016.7
20260505020649 19 215 4.8 8.0 0.00 0.00 0.00 66 1017.0
20260505020145 19 239 3.2 4.8 0.00 0.00 0.00 66 1017.1
20260505015643 19 213 3.2 3.2 0.00 0.00 0.00 65 1016.7
20260505015139 19 227 6.4 9.7 0.00 0.00 0.00 65 1016.8
20260505014636 19 237 3.2 3.2 0.00 0.00 0.00 65 1016.8
20260505014133 19 219 4.8 4.8 0.00 0.00 0.00 65 1016.8
20260505013631 19 191 6.4 8.0 0.00 0.00 0.00 65 1016.9
20260505013127 19 265 0.0 0.0 0.00 0.00 0.00 65 1016.6
20260505012626 19 163 4.8 9.7 0.00 0.00 0.00 65 1016.5
20260505012122 19 234 4.8 4.8 0.00 0.00 0.00 65 1016.6
20260505011618 19 206 1.6 3.2 0.00 0.00 0.00 65 1016.6
20260505011115 20 202 3.2 4.8 0.00 0.00 0.00 65 1016.4
20260505010611 20 204 3.2 4.8 0.00 0.00 0.00 65 1016.3
20260505010108 19 254 4.8 8.0 0.00 0.00 0.00 65 1016.2
20260505005604 20 218 3.2 4.8 0.00 0.00 0.00 65 1016.3
20260505005101 20 168 6.4 8.0 0.00 0.00 0.00 65 1016.1
20260505004558 20 195 6.4 9.7 0.00 0.00 0.00 65 1016.0
20260505004055 20 188 4.8 4.8 0.00 0.00 0.00 65 1016.0
20260505003552 20 195 6.4 9.7 0.00 0.00 0.00 64 1016.0
20260505003050 20 204 1.6 3.2 0.00 0.00 0.00 64 1015.9
20260505002550 20 189 4.8 4.8 0.00 0.00 0.00 63 1015.8
20260505002049 20 227 4.8 4.8 0.00 0.00 0.00 63 1015.8
20260505001546 20 227 4.8 4.8 0.00 0.00 0.00 62 1015.8
20260505001043 20 194 3.2 8.0 0.00 0.00 0.00 62 1015.7
20260505000540 20 247 1.6 3.2 0.00 0.00 0.00 62 1015.6
20260505000038 20 187 8.0 11.3 0.00 0.00 0.00 62 1015.6
20260504235534 20 211 9.7 14.5 0.00 0.00 0.00 61 1015.7
20260504235031 20 206 6.4 12.9 0.00 0.00 0.00 62 1015.5
20260504234528 21 346 1.6 4.8 0.00 0.00 0.00 62 1015.5
20260504234025 21 201 1.6 3.2 0.00 0.00 0.00 61 1015.4
20260504233520 21 171 8.0 9.7 0.00 0.00 0.00 61 1015.1
20260504233018 21 164 8.0 11.3 0.00 0.00 0.00 60 1015.3
20260504232514 21 175 8.0 11.3 0.00 0.00 0.00 60 1015.2
20260504232012 21 218 3.2 3.2 0.00 0.00 0.00 60 1015.1
20260504231508 21 151 8.0 11.3 0.00 0.00 0.00 59 1014.9
20260504231005 21 183 3.2 4.8 0.00 0.00 0.00 58 1015.0
20260504230501 22 267 4.8 4.8 0.00 0.00 0.00 58 1015.0
20260504230000 22 173 12.9 16.1 0.00 0.00 0.00 57 1015.0
20260504225456 22 215 6.4 9.7 0.00 0.00 0.00 57 1014.9
20260504224954 22 183 8.0 11.3 0.00 0.00 0.00 57 1015.0
20260504224450 23 181 4.8 8.0 0.00 0.00 0.00 54 1014.8
20260504223947 24 252 3.2 4.8 0.00 0.00 0.00 39 1014.6
20260504223443 24 223 4.8 8.0 0.00 0.00 0.00 38 1014.9
20260504222939 24 241 4.8 8.0 0.00 0.00 0.00 39 1014.7
20260504222437 25 183 1.6 4.8 0.00 0.00 0.00 38 1014.8
20260504221934 25 259 9.7 14.5 0.00 0.00 0.00 38 1014.7
20260504221431 25 259 8.0 11.3 0.00 0.00 0.00 38 1014.7
20260504220928 25 164 11.3 14.5 0.00 0.00 0.00 38 1014.7
20260504220425 25 274 4.8 4.8 0.00 0.00 0.00 38 1014.9
20260504215922 25 251 9.7 12.9 0.00 0.00 0.00 38 1014.5
20260504215419 25 285 9.7 12.9 0.00 0.00 0.00 37 1014.9
20260504214915 25 306 8.0 11.3 0.00 0.00 0.00 38 1014.9
20260504214412 25 242 4.8 8.0 0.00 0.00 0.00 37 1014.7
20260504213908 25 256 6.4 8.0 0.00 0.00 0.00 37 1014.8
20260504213404 25 174 4.8 8.0 0.00 0.00 0.00 37 1014.7
20260504212902 25 229 6.4 9.7 0.00 0.00 0.00 36 1014.9
20260504212357 25 231 8.0 11.3 0.00 0.00 0.00 37 1015.1
20260504211855 25 212 4.8 8.0 0.00 0.00 0.00 38 1014.8
20260504211351 25 202 4.8 8.0 0.00 0.00 0.00 38 1014.9
20260504210849 25 180 4.8 9.7 0.00 0.00 0.00 38 1014.9
20260504210346 25 253 4.8 8.0 0.00 0.00 0.00 36 1015.0
20260504205843 25 217 8.0 9.7 0.00 0.00 0.00 37 1015.1
20260504205341 25 225 3.2 4.8 0.00 0.00 0.00 37 1014.7
20260504204839 25 289 6.4 8.0 0.00 0.00 0.00 37 1015.1
20260504204337 25 248 9.7 14.5 0.00 0.00 0.00 37 1015.2
20260504203836 25 218 4.8 9.7 0.00 0.00 0.00 36 1014.9
20260504203332 26 282 0.0 1.6 0.00 0.00 0.00 35 1014.7
20260504202828 25 264 3.2 4.8 0.00 0.00 0.00 34 1015.0
20260504202326 25 254 1.6 9.7 0.00 0.00 0.00 35 1014.9
20260504201822 25 204 8.0 11.3 0.00 0.00 0.00 36 1014.9
20260504201320 25 241 1.6 8.0 0.00 0.00 0.00 36 1015.0
20260504200817 25 167 8.0 11.3 0.00 0.00 0.00 34 1015.0
20260504200313 25 159 9.7 14.5 0.00 0.00 0.00 35 1015.1
20260504195809 25 268 3.2 3.2 0.00 0.00 0.00 38 1015.3
20260504195305 25 243 8.0 11.3 0.00 0.00 0.00 36 1015.3
20260504194803 25 211 4.8 4.8 0.00 0.00 0.00 39 1015.2
20260504194259 25 222 6.4 8.0 0.00 0.00 0.00 37 1015.4
20260504193755 25 247 11.3 12.9 0.00 0.00 0.00 36 1015.4
20260504193252 25 259 6.4 11.3 0.00 0.00 0.00 38 1015.6
20260504192751 25 207 4.8 4.8 0.00 0.00 0.00 38 1015.6
20260504192248 25 263 6.4 9.7 0.00 0.00 0.00 37 1015.7
20260504191747 25 216 6.4 9.7 0.00 0.00 0.00 37 1015.8
20260504191243 25 236 8.0 12.9 0.00 0.00 0.00 37 1015.6
20260504190739 25 221 8.0 11.3 0.00 0.00 0.00 39 1015.9
20260504190236 24 164 11.3 17.7 0.00 0.00 0.00 40 1015.7
20260504185732 25 193 4.8 8.0 0.00 0.00 0.00 39 1016.0
20260504185229 24 256 8.0 9.7 0.00 0.00 0.00 39 1016.0
20260504184725 25 196 1.6 3.2 0.00 0.00 0.00 40 1016.1